Change the Weather History Date:

Saturday, November 23, 2013

  Actual Average (KDTW) Record (KDTW)
Temperature  
Mean Temperature 26 °F 38 °F  
Max Temperature 32 °F 45 °F 69 °F (1931)
Min Temperature 19 °F 32 °F 8 °F (1880)
Degree Days  
Heating Degree Days 40 26  
Month to date heating degree days 507  
Since 1 July heating degree days 1018  
Cooling Degree Days 0 0  
Month to date cooling degree days 0  
Year to date cooling degree days 803  
Moisture  
Dew Point 16 °F    
Average Humidity 66    
Maximum Humidity 93    
Minimum Humidity 37    
Precipitation  
Precipitation 0.00 in 0.10 in 1.24 in (1891)
Month to date precipitation 2.15  
Year to date precipitation 30.37  
Snow  
Snow 0.00 in 0.10 in 2.30 in (2005)
Month to date snowfall 0.8  
Since 1 July snowfall 0.9  
Since 1 September snowfall 0.9  
Snow Depth -    
Sea Level Pressure  
Sea Level Pressure 30.34 in    
Wind  
Wind Speed 10 mph (WNW)    
Max Wind Speed 26 mph    
Max Gust Speed 32 mph    
Visibility 10 miles    
Events Snow    
T = Trace of Precipitation, MM = Missing Value Source: NWS Daily Summary

Daily Weather History Graph

Daily Weather History Graph

Search for Another Location

Airport or City:

Trip Planner

Search our weather history database for the weather conditions in past years. The results will help you decide how hot, cold, wet, or windy it might be!

Date:

Astronomy

Nov. 23, 2013 Rise Set
Actual Time 7:32 AM EST 5:05 PM EST
Civil Twilight 7:02 AM EST 5:35 PM EST
Nautical Twilight 6:27 AM EST 6:10 PM EST
Astronomical Twilight 5:54 AM EST 6:43 PM EST
Moon 10:35 PM EST (11/23) 11:47 AM EST (11/23)
Length of Visible Light 10h 33m
Length of Day
9h 32m
Waning Gibbous, 70% of the Moon is Illuminated
Nov 23
Waning Gibbous
Nov 25
Last Quarter
Dec 2
New
Dec 9
First Quarter
Dec 17
Full

Hourly Weather History & Observations

Time (EST) Temp. Windchill Dew Point Humidity Pressure Visibility Wind Dir Wind Speed Gust Speed Precip Events Conditions
12:14 AM 30.2 °F 25.4 °F 24.8 °F 80% 30.35 in 10.0 mi West 4.6 mph - N/A   Clear
12:34 AM 30.2 °F 24.3 °F 24.8 °F 80% 30.35 in 10.0 mi WNW 5.8 mph - N/A   Clear
12:54 AM 30.2 °F 24.3 °F 24.8 °F 80% 30.35 in 10.0 mi WNW 5.8 mph - N/A   Clear
1:14 AM 28.4 °F 22.2 °F 24.8 °F 86% 30.34 in 10.0 mi West 5.8 mph - N/A   Clear
1:34 AM 28.4 °F 23.3 °F 24.8 °F 86% 30.34 in 10.0 mi West 4.6 mph - N/A   Clear
1:53 AM 28.4 °F 23.3 °F 24.8 °F 86% 30.33 in 10.0 mi West 4.6 mph - N/A   Clear
2:14 AM 28.4 °F 23.3 °F 24.8 °F 86% 30.33 in 10.0 mi West 4.6 mph - N/A   Clear
2:34 AM 28.4 °F 24.6 °F 24.8 °F 86% 30.32 in 10.0 mi West 3.5 mph - N/A   Clear
2:54 AM 28.4 °F 22.2 °F 24.8 °F 86% 30.31 in 10.0 mi WSW 5.8 mph - N/A   Clear
3:14 AM 28.4 °F 24.6 °F 24.8 °F 86% 30.30 in 10.0 mi WSW 3.5 mph - N/A   Clear
3:35 AM 28.4 °F 23.3 °F 24.8 °F 86% 30.30 in 10.0 mi WSW 4.6 mph - N/A   Clear
3:54 AM 26.6 °F 21.2 °F 23.0 °F 86% 30.29 in 10.0 mi WSW 4.6 mph - N/A   Clear
4:14 AM 26.6 °F 21.2 °F 24.8 °F 93% 30.28 in 10.0 mi WSW 4.6 mph - N/A   Scattered Clouds
4:34 AM 26.6 °F 21.2 °F 24.8 °F 93% 30.27 in 10.0 mi WSW 4.6 mph - N/A   Clear
4:54 AM 26.6 °F 20.0 °F 24.8 °F 93% 30.27 in 10.0 mi WSW 5.8 mph - N/A   Clear
5:14 AM 26.6 °F 20.0 °F 23.0 °F 86% 30.27 in 10.0 mi WSW 5.8 mph - N/A   Clear
5:34 AM 26.6 °F 19.1 °F 23.0 °F 86% 30.27 in 10.0 mi WSW 6.9 mph - N/A   Clear
5:54 AM 26.6 °F 18.2 °F 23.0 °F 86% 30.26 in 10.0 mi West 8.1 mph - N/A   Clear
6:14 AM 26.6 °F 19.1 °F 23.0 °F 86% 30.26 in 10.0 mi WSW 6.9 mph - N/A   Clear
6:34 AM 28.4 °F 20.4 °F 24.8 °F 86% 30.26 in 10.0 mi WSW 8.1 mph - N/A   Clear
6:54 AM 28.4 °F 20.4 °F 24.8 °F 86% 30.26 in 10.0 mi West 8.1 mph - N/A   Clear
7:15 AM 28.4 °F 21.2 °F 24.8 °F 86% 30.26 in 10.0 mi West 6.9 mph - N/A   Clear
7:34 AM 28.4 °F 20.4 °F 24.8 °F 86% 30.25 in 10.0 mi West 8.1 mph - N/A   Scattered Clouds
7:54 AM 28.4 °F 20.4 °F 24.8 °F 86% 30.26 in 10.0 mi West 8.1 mph - N/A   Scattered Clouds
8:14 AM 28.4 °F 20.4 °F 24.8 °F 86% 30.26 in 10.0 mi West 8.1 mph - N/A   Clear
8:34 AM 28.4 °F 19.7 °F 24.8 °F 86% 30.26 in 10.0 mi West 9.2 mph - N/A   Clear
8:55 AM 28.4 °F 19.1 °F 23.0 °F 80% 30.26 in 10.0 mi WNW 10.4 mph - N/A   Clear
9:14 AM 30.2 °F 22.6 °F 23.0 °F 75% 30.26 in 10.0 mi West 8.1 mph - N/A   Mostly Cloudy
9:34 AM 30.2 °F 21.9 °F 21.2 °F 69% 30.26 in 10.0 mi WNW 9.2 mph - N/A   Overcast
9:54 AM 32.0 °F 22.1 °F 21.2 °F 64% 30.26 in 10.0 mi WNW 13.8 mph 18.4 mph N/A   Overcast
10:14 AM 32.0 °F 22.1 °F 21.2 °F 64% 30.27 in 10.0 mi WNW 13.8 mph 21.9 mph N/A   Mostly Cloudy
10:34 AM 30.2 °F 19.8 °F 21.2 °F 69% 30.27 in 10.0 mi NW 13.8 mph 18.4 mph N/A   Overcast
10:54 AM 30.2 °F 17.4 °F 21.2 °F 69% 30.28 in 5.0 mi NW 20.7 mph 29.9 mph N/A Snow Snow
11:14 AM 28.4 °F 16.6 °F 21.2 °F 74% 30.29 in 5.0 mi NNW 16.1 mph - N/A Snow Light Snow
11:34 AM 28.4 °F 16.2 °F 19.4 °F 69% 30.29 in 10.0 mi NW 17.3 mph 24.2 mph N/A   Mostly Cloudy
11:54 AM 30.2 °F 18.1 °F 15.8 °F 55% 30.28 in 10.0 mi NW 18.4 mph 28.8 mph N/A   Scattered Clouds
12:14 PM 30.2 °F 18.9 °F 15.8 °F 55% 30.28 in 10.0 mi NW 16.1 mph 27.6 mph N/A   Mostly Cloudy
12:34 PM 30.2 °F 18.9 °F 14.0 °F 51% 30.28 in 10.0 mi NNW 16.1 mph 26.5 mph N/A   Mostly Cloudy
12:54 PM 30.2 °F 15.9 °F 10.4 °F 44% 30.28 in 10.0 mi NW 26.5 mph 32.2 mph N/A   Mostly Cloudy
1:14 PM 30.2 °F 18.9 °F 8.6 °F 40% 30.28 in 10.0 mi NW 16.1 mph 28.8 mph N/A   Mostly Cloudy
1:34 PM 30.2 °F 17.4 °F 8.6 °F 40% 30.28 in 10.0 mi WNW 20.7 mph 31.1 mph N/A   Mostly Cloudy
1:54 PM 28.4 °F 16.2 °F 8.6 °F 43% 30.29 in 10.0 mi WNW 17.3 mph 28.8 mph N/A   Overcast
2:14 PM 28.4 °F 16.2 °F 8.6 °F 43% 30.30 in 10.0 mi NW 17.3 mph 28.8 mph N/A   Mostly Cloudy
2:34 PM 28.4 °F 14.7 °F 10.4 °F 47% 30.31 in 10.0 mi NW 21.9 mph 29.9 mph N/A   Mostly Cloudy
2:54 PM 26.6 °F 12.0 °F 10.4 °F 51% 30.32 in 10.0 mi NW 23.0 mph 28.8 mph N/A   Overcast
3:14 PM 26.6 °F 14.3 °F 8.6 °F 47% 30.32 in 10.0 mi NW 16.1 mph 31.1 mph N/A   Overcast
3:34 PM 26.6 °F 12.4 °F 8.6 °F 47% 30.33 in 10.0 mi NW 21.9 mph 28.8 mph N/A   Overcast
3:54 PM 26.6 °F 13.4 °F 5.0 °F 40% 30.34 in 10.0 mi NNW 18.4 mph 27.6 mph N/A   Mostly Cloudy
4:14 PM 26.6 °F 12.4 °F 3.2 °F 37% 30.35 in 10.0 mi NNW 21.9 mph 32.2 mph N/A   Scattered Clouds
4:34 PM 26.6 °F 14.7 °F 5.0 °F 40% 30.36 in 10.0 mi NNW 15.0 mph 23.0 mph N/A   Mostly Cloudy
4:54 PM 24.8 °F 10.7 °F 6.8 °F 46% 30.37 in 10.0 mi NNW 19.6 mph 26.5 mph N/A   Mostly Cloudy
5:14 PM 24.8 °F 12.9 °F 5.0 °F 43% 30.38 in 10.0 mi NNW 13.8 mph 26.5 mph N/A   Scattered Clouds
5:34 PM 24.8 °F 11.5 °F 5.0 °F 43% 30.38 in 10.0 mi NW 17.3 mph 25.3 mph N/A   Scattered Clouds
5:54 PM 24.8 °F 11.5 °F 6.8 °F 46% 30.39 in 10.0 mi NNW 17.3 mph 27.6 mph N/A   Scattered Clouds
6:14 PM 23.0 °F 8.7 °F 6.8 °F 50% 30.40 in 10.0 mi NW 18.4 mph 24.2 mph N/A   Clear
6:34 PM 23.0 °F 8.7 °F 6.8 °F 50% 30.41 in 10.0 mi NNW 18.4 mph 27.6 mph N/A   Clear
6:54 PM 23.0 °F 6.9 °F 6.8 °F 50% 30.42 in 10.0 mi NW 24.2 mph 28.8 mph N/A   Scattered Clouds
7:14 PM 21.2 °F 6.8 °F 10.4 °F 63% 30.43 in 10.0 mi NW 17.3 mph 24.2 mph N/A   Mostly Cloudy
7:34 PM 21.2 °F 8.3 °F 10.4 °F 63% 30.43 in 10.0 mi NW 13.8 mph 23.0 mph N/A   Clear
7:54 PM 21.2 °F 6.4 °F 10.4 °F 63% 30.44 in 10.0 mi NW 18.4 mph 21.9 mph N/A   Clear
8:14 PM 21.2 °F 7.3 °F 10.4 °F 63% 30.45 in 10.0 mi NW 16.1 mph - N/A   Clear
8:34 PM 21.2 °F 7.8 °F 8.6 °F 58% 30.45 in 10.0 mi NW 15.0 mph - N/A   Clear
8:54 PM 21.2 °F 7.8 °F 6.8 °F 54% 30.46 in 10.0 mi NW 15.0 mph 21.9 mph N/A   Clear
9:14 PM 21.2 °F 7.3 °F 6.8 °F 54% 30.46 in 10.0 mi NW 16.1 mph 23.0 mph N/A   Clear
9:34 PM 19.4 °F 7.2 °F 6.8 °F 58% 30.47 in 10.0 mi NW 11.5 mph 21.9 mph N/A   Clear
9:54 PM 19.4 °F 6.0 °F 8.6 °F 63% 30.47 in 10.0 mi NW 13.8 mph 17.3 mph N/A   Clear
10:14 PM 19.4 °F 7.9 °F 8.6 °F 63% 30.47 in 10.0 mi NW 10.4 mph - N/A   Clear
10:34 PM 19.4 °F 7.2 °F 6.8 °F 58% 30.47 in 10.0 mi NW 11.5 mph 17.3 mph N/A   Clear
10:54 PM 19.4 °F 6.6 °F 6.8 °F 58% 30.48 in 10.0 mi NW 12.7 mph 20.7 mph N/A   Clear
11:14 PM 19.4 °F 6.6 °F 6.8 °F 58% 30.48 in 10.0 mi NW 12.7 mph - N/A   Clear
11:34 PM 19.4 °F 7.2 °F 6.8 °F 58% 30.49 in 10.0 mi NW 11.5 mph - N/A   Clear
11:54 PM 19.4 °F 6.6 °F 6.8 °F 58% 30.49 in 10.0 mi NW 12.7 mph - N/A   Clear